EWG6LC ELLX-LMML

Flight info

Callsign EWG6LC
Flight time 2h 17m
Altitude 37000
Route GTQ DCT DEVDI DCT ODINA DCT KISTO DCT ROXAN DCT GIANO DCT MARON DCT EKOLA L12 GZO
Aircraft A320/M-SDE3FGHIRWY/LB1

Departure

Time 2026-05-06 10:26
Airport Luxembourg-Findel International Airport (ELLX)

Arrival

Time 2026-05-06 12:43
Airport Malta International Airport (LMML)
Time Latitude Longitude Altitude Speed Heading
2026-05-06 09:48 49.63353 6.21689 1219 ft 0 kts 330°
2026-05-06 10:13 49.63340 6.21700 1218 ft 4 kts 333°
2026-05-06 10:14 49.63316 6.21715 1218 ft 4 kts 351°
2026-05-06 10:14 49.63293 6.21713 1218 ft 4 kts 47°
2026-05-06 10:14 49.63289 6.21706 1218 ft 0 kts 60°
2026-05-06 10:19 49.63301 6.21738 1218 ft 6 kts 60°
2026-05-06 10:19 49.63292 6.21815 1218 ft 8 kts 139°
2026-05-06 10:19 49.63234 6.21871 1218 ft 12 kts 149°
2026-05-06 10:20 49.63168 6.21913 1218 ft 11 kts 190°
2026-05-06 10:20 49.63123 6.21792 1218 ft 17 kts 244°
2026-05-06 10:20 49.63064 6.21603 1218 ft 21 kts 244°
2026-05-06 10:20 49.62997 6.21389 1218 ft 23 kts 244°
2026-05-06 10:21 49.62924 6.21158 1218 ft 25 kts 244°
2026-05-06 10:21 49.62854 6.20925 1218 ft 16 kts 244°
2026-05-06 10:21 49.62801 6.20769 1218 ft 17 kts 234°
2026-05-06 10:21 49.62707 6.20633 1217 ft 20 kts 218°
2026-05-06 10:22 49.62606 6.20482 1219 ft 21 kts 228°
2026-05-06 10:22 49.62509 6.20300 1219 ft 23 kts 235°
2026-05-06 10:22 49.62421 6.20090 1222 ft 23 kts 239°
2026-05-06 10:22 49.62342 6.19871 1225 ft 23 kts 240°
2026-05-06 10:23 49.62262 6.19651 1227 ft 24 kts 241°
2026-05-06 10:23 49.62178 6.19425 1222 ft 22 kts 240°
2026-05-06 10:23 49.62102 6.19221 1212 ft 25 kts 241°
2026-05-06 10:23 49.62032 6.19032 1199 ft 18 kts 239°
2026-05-06 10:24 49.61966 6.18859 1186 ft 8 kts 236°
2026-05-06 10:24 49.61942 6.18814 1182 ft 9 kts 228°
2026-05-06 10:24 49.61870 6.18731 1173 ft 15 kts 210°
2026-05-06 10:24 49.61788 6.18749 1170 ft 9 kts 141°
2026-05-06 10:25 49.61773 6.18799 1171 ft 5 kts 88°
2026-05-06 10:25 49.61853 6.19030 1190 ft 56 kts 60°
2026-05-06 10:25 49.62151 6.19822 1227 ft 114 kts 59°
2026-05-06 10:25 49.62636 6.21120 1219 ft 163 kts 60°
2026-05-06 10:26 49.63243 6.22764 1535 ft 180 kts 58°
2026-05-06 10:26 49.63859 6.24442 2307 ft 180 kts 58°
2026-05-06 10:26 49.64505 6.26168 2729 ft 200 kts 60°
2026-05-06 10:26 49.64951 6.28292 3081 ft 221 kts 94°
2026-05-06 10:27 49.64386 6.30567 3382 ft 241 kts 132°
2026-05-06 10:27 49.63079 6.32350 3794 ft 261 kts 148°
2026-05-06 10:27 49.61528 6.33854 4662 ft 264 kts 151°
2026-05-06 10:27 49.59951 6.35332 5585 ft 267 kts 150°
2026-05-06 10:28 49.58385 6.36911 6448 ft 271 kts 148°
2026-05-06 10:28 49.56829 6.38598 7267 ft 275 kts 147°
2026-05-06 10:28 49.55220 6.40140 8045 ft 278 kts 158°
2026-05-06 10:28 49.53450 6.41350 8878 ft 280 kts 159°
2026-05-06 10:29 49.51656 6.42585 9720 ft 283 kts 159°
2026-05-06 10:29 49.49824 6.43857 10213 ft 299 kts 159°
2026-05-06 10:29 49.47851 6.45221 10421 ft 322 kts 158°
2026-05-06 10:29 49.45761 6.46671 10893 ft 334 kts 158°
2026-05-06 10:30 49.43627 6.48157 11582 ft 339 kts 158°
2026-05-06 10:30 49.41470 6.49659 12320 ft 342 kts 158°
2026-05-06 10:30 49.39288 6.51175 13042 ft 346 kts 158°
2026-05-06 10:30 49.37082 6.52705 13716 ft 350 kts 158°
2026-05-06 10:31 49.34889 6.54225 14339 ft 353 kts 158°
2026-05-06 10:31 49.32639 6.55781 14985 ft 356 kts 158°
2026-05-06 10:31 49.30372 6.57341 15613 ft 358 kts 157°
2026-05-06 10:31 49.28086 6.58910 16218 ft 362 kts 157°
2026-05-06 10:32 49.25780 6.60491 16871 ft 365 kts 158°
2026-05-06 10:32 49.23447 6.62053 17525 ft 367 kts 161°
2026-05-06 10:32 49.20986 6.63147 18189 ft 369 kts 167°
2026-05-06 10:32 49.18484 6.64089 18754 ft 372 kts 167°
2026-05-06 10:33 49.15997 6.65032 19251 ft 374 kts 167°
2026-05-06 10:33 49.13460 6.65999 19786 ft 377 kts 167°
2026-05-06 10:33 49.10914 6.66971 20330 ft 379 kts 167°
2026-05-06 10:33 49.08348 6.67950 20866 ft 381 kts 167°
2026-05-06 10:34 49.05766 6.68930 21369 ft 384 kts 167°
2026-05-06 10:34 49.03161 6.69917 21893 ft 387 kts 167°
2026-05-06 10:34 49.00545 6.70905 22416 ft 389 kts 167°
2026-05-06 10:34 48.97945 6.72112 22876 ft 393 kts 159°
2026-05-06 10:35 48.95440 6.73804 23334 ft 396 kts 157°
2026-05-06 10:35 48.92955 6.75508 23738 ft 398 kts 158°
2026-05-06 10:35 48.90425 6.77235 24159 ft 399 kts 158°
2026-05-06 10:35 48.87895 6.78960 24604 ft 399 kts 158°
2026-05-06 10:36 48.85364 6.80683 25033 ft 400 kts 158°
2026-05-06 10:36 48.82821 6.82415 25453 ft 400 kts 158°
2026-05-06 10:36 48.80273 6.84147 25866 ft 401 kts 158°
2026-05-06 10:36 48.77728 6.85875 26264 ft 402 kts 158°
2026-05-06 10:37 48.75173 6.87607 26666 ft 403 kts 158°
2026-05-06 10:37 48.72646 6.89317 27052 ft 403 kts 158°
2026-05-06 10:37 48.70086 6.91050 27458 ft 404 kts 158°
2026-05-06 10:37 48.67509 6.92795 27903 ft 406 kts 158°
2026-05-06 10:38 48.64934 6.94538 28344 ft 407 kts 158°
2026-05-06 10:38 48.62342 6.96288 28745 ft 408 kts 158°
2026-05-06 10:38 48.59744 6.98037 29133 ft 410 kts 158°
2026-05-06 10:38 48.57132 6.99792 29486 ft 411 kts 158°
2026-05-06 10:39 48.54512 7.01550 29821 ft 413 kts 158°
2026-05-06 10:39 48.51883 7.03313 30101 ft 415 kts 158°
2026-05-06 10:39 48.49270 7.05063 30313 ft 417 kts 158°
2026-05-06 10:39 48.46612 7.06845 30524 ft 420 kts 158°
2026-05-06 10:40 48.43940 7.08634 30760 ft 421 kts 158°
2026-05-06 10:40 48.41267 7.10420 31076 ft 421 kts 158°
2026-05-06 10:40 48.38581 7.12213 31353 ft 422 kts 158°
2026-05-06 10:40 48.35894 7.14006 31628 ft 423 kts 158°
2026-05-06 10:41 48.33206 7.15798 31907 ft 423 kts 158°
2026-05-06 10:41 48.30510 7.17589 32180 ft 424 kts 159°
2026-05-06 10:41 48.27815 7.19378 32447 ft 425 kts 159°
2026-05-06 10:41 48.25141 7.21154 32740 ft 425 kts 159°
2026-05-06 10:42 48.22437 7.22946 33031 ft 426 kts 159°
2026-05-06 10:42 48.19717 7.24747 33319 ft 426 kts 159°
2026-05-06 10:42 48.17006 7.26540 33670 ft 426 kts 160°
2026-05-06 10:42 48.14299 7.28329 33986 ft 425 kts 161°
2026-05-06 10:43 48.11603 7.30111 34295 ft 424 kts 160°
2026-05-06 10:43 48.08904 7.31893 34541 ft 424 kts 160°
2026-05-06 10:43 48.06205 7.33669 34765 ft 424 kts 160°
2026-05-06 10:44 48.00840 7.37192 35240 ft 424 kts 160°
2026-05-06 10:44 47.98135 7.38964 35456 ft 424 kts 161°
2026-05-06 10:44 47.95445 7.40725 35728 ft 422 kts 161°
2026-05-06 10:44 47.92756 7.42482 35965 ft 422 kts 161°
2026-05-06 10:45 47.90067 7.44236 36180 ft 422 kts 160°
2026-05-06 10:45 47.87376 7.45991 36390 ft 422 kts 160°
2026-05-06 10:45 47.84690 7.47743 36199 ft 421 kts 160°
2026-05-06 10:45 47.82012 7.49487 35858 ft 420 kts 161°
2026-05-06 10:46 47.79370 7.51205 35850 ft 420 kts 161°
2026-05-06 10:46 47.74002 7.54698 35860 ft 421 kts 161°
2026-05-06 10:47 47.68669 7.58331 35840 ft 422 kts 159°
2026-05-06 10:47 47.63396 7.62115 35864 ft 421 kts 159°
2026-05-06 10:48 47.58129 7.65894 35863 ft 421 kts 159°
2026-05-06 10:48 47.52875 7.69598 35861 ft 420 kts 160°
2026-05-06 10:49 47.47585 7.73282 35858 ft 420 kts 160°
2026-05-06 10:49 47.42300 7.76966 36018 ft 419 kts 160°
2026-05-06 10:49 47.39670 7.78801 36265 ft 419 kts 160°
2026-05-06 10:50 47.37032 7.80638 36518 ft 418 kts 159°
2026-05-06 10:50 47.34408 7.82461 36749 ft 417 kts 159°
2026-05-06 10:50 47.31808 7.84261 36824 ft 420 kts 159°
2026-05-06 10:51 47.26484 7.87946 36848 ft 424 kts 159°
2026-05-06 10:51 47.21148 7.91651 36846 ft 424 kts 159°
2026-05-06 10:52 47.15809 7.95352 36838 ft 424 kts 159°
2026-05-06 10:52 47.10498 7.99008 36826 ft 424 kts 160°
2026-05-06 10:53 47.05143 8.02689 36830 ft 426 kts 160°
2026-05-06 10:53 46.99775 8.06368 36826 ft 426 kts 160°
2026-05-06 10:54 46.94400 8.10048 36823 ft 426 kts 160°
2026-05-06 10:54 46.89062 8.13697 36823 ft 427 kts 160°
2026-05-06 10:55 46.83679 8.17363 36823 ft 427 kts 160°
2026-05-06 10:55 46.78303 8.21026 36843 ft 427 kts 161°
2026-05-06 10:56 46.72908 8.24687 36851 ft 428 kts 161°
2026-05-06 10:56 46.67538 8.28315 36862 ft 428 kts 161°
2026-05-06 10:57 46.62142 8.31954 36867 ft 427 kts 161°
2026-05-06 10:57 46.56760 8.35583 36876 ft 426 kts 161°
2026-05-06 10:58 46.51394 8.39205 36871 ft 425 kts 161°
2026-05-06 10:58 46.46027 8.42805 36863 ft 424 kts 161°
2026-05-06 10:59 46.40696 8.46365 36863 ft 425 kts 161°
2026-05-06 10:59 46.35339 8.49949 36852 ft 423 kts 161°
2026-05-06 11:00 46.29993 8.53525 36852 ft 424 kts 161°
2026-05-06 11:00 46.24629 8.57091 36836 ft 424 kts 162°
2026-05-06 11:01 46.19308 8.60621 36856 ft 424 kts 161°
2026-05-06 11:01 46.13944 8.64172 36870 ft 424 kts 161°
2026-05-06 11:02 46.08526 8.67435 36869 ft 419 kts 167°
2026-05-06 11:02 46.03052 8.70097 36848 ft 418 kts 167°
2026-05-06 11:03 45.97542 8.72760 36860 ft 417 kts 167°
2026-05-06 11:03 45.92041 8.75422 36844 ft 416 kts 168°
2026-05-06 11:04 45.86548 8.78082 36848 ft 416 kts 168°
2026-05-06 11:04 45.81051 8.80735 36843 ft 417 kts 168°
2026-05-06 11:05 45.75591 8.83363 36856 ft 417 kts 168°
2026-05-06 11:05 45.70099 8.85998 36862 ft 416 kts 168°
2026-05-06 11:06 45.64612 8.88632 36864 ft 416 kts 168°
2026-05-06 11:06 45.59146 8.91250 36860 ft 416 kts 168°
2026-05-06 11:07 45.53704 8.93849 36849 ft 414 kts 168°
2026-05-06 11:07 45.48233 8.96459 36847 ft 415 kts 168°
2026-05-06 11:08 45.42767 8.99057 36835 ft 414 kts 168°
2026-05-06 11:08 45.37302 9.01647 36836 ft 414 kts 168°
2026-05-06 11:09 45.31847 9.04236 36842 ft 413 kts 168°
2026-05-06 11:09 45.26429 9.06803 36835 ft 413 kts 168°
2026-05-06 11:10 45.20978 9.09372 36839 ft 413 kts 168°
2026-05-06 11:10 45.15526 9.11934 36832 ft 413 kts 168°
2026-05-06 11:11 45.10067 9.14500 36839 ft 413 kts 168°
2026-05-06 11:11 45.04653 9.17043 36839 ft 413 kts 168°
2026-05-06 11:12 44.99200 9.19592 36832 ft 413 kts 168°
2026-05-06 11:12 44.93746 9.22124 36819 ft 413 kts 168°
2026-05-06 11:13 44.88301 9.24669 36835 ft 412 kts 168°
2026-05-06 11:13 44.82892 9.27196 36848 ft 412 kts 168°
2026-05-06 11:14 44.77457 9.29723 36828 ft 411 kts 168°
2026-05-06 11:14 44.72018 9.32242 36841 ft 412 kts 168°
2026-05-06 11:15 44.66596 9.34751 36857 ft 411 kts 168°
2026-05-06 11:15 44.61154 9.37254 36862 ft 412 kts 168°
2026-05-06 11:16 44.55743 9.39741 36859 ft 412 kts 168°
2026-05-06 11:16 44.50289 9.42249 36858 ft 413 kts 169°
2026-05-06 11:17 44.44825 9.44759 36881 ft 414 kts 168°
2026-05-06 11:17 44.39350 9.47273 36859 ft 414 kts 169°
2026-05-06 11:18 44.33897 9.49770 36870 ft 416 kts 169°
2026-05-06 11:18 44.28394 9.52271 36882 ft 416 kts 169°
2026-05-06 11:19 44.22889 9.54767 36894 ft 417 kts 169°
2026-05-06 11:19 44.17372 9.57280 36896 ft 417 kts 169°
2026-05-06 11:20 44.11896 9.59769 36905 ft 417 kts 169°
2026-05-06 11:20 44.06381 9.62278 36910 ft 417 kts 169°
2026-05-06 11:21 44.01006 9.64696 36904 ft 417 kts 169°
2026-05-06 11:21 43.95520 9.67167 36912 ft 418 kts 169°
2026-05-06 11:22 43.90032 9.69636 36920 ft 417 kts 169°
2026-05-06 11:22 43.84506 9.72111 36919 ft 417 kts 169°
2026-05-06 11:23 43.78982 9.74590 36917 ft 418 kts 169°
2026-05-06 11:23 43.73449 9.77060 36924 ft 418 kts 169°
2026-05-06 11:24 43.67944 9.79513 36928 ft 418 kts 169°
2026-05-06 11:24 43.62412 9.81975 36931 ft 418 kts 169°
2026-05-06 11:25 43.56876 9.84440 36911 ft 419 kts 168°
2026-05-06 11:25 43.51300 9.86919 36925 ft 421 kts 168°
2026-05-06 11:26 43.45729 9.89394 36928 ft 421 kts 168°
2026-05-06 11:26 43.40195 9.91842 36924 ft 420 kts 168°
2026-05-06 11:27 43.34631 9.94295 36920 ft 420 kts 168°
2026-05-06 11:27 43.29054 9.96753 36918 ft 421 kts 168°
2026-05-06 11:28 43.23478 9.99202 36924 ft 421 kts 168°
2026-05-06 11:28 43.17936 10.01631 36897 ft 421 kts 168°
2026-05-06 11:29 43.12351 10.04073 36911 ft 421 kts 168°
2026-05-06 11:29 43.06762 10.06508 36927 ft 422 kts 168°
2026-05-06 11:30 43.01172 10.08951 36924 ft 422 kts 168°
2026-05-06 11:30 42.95580 10.11388 36911 ft 422 kts 168°
2026-05-06 11:31 42.90026 10.13799 36918 ft 422 kts 168°
2026-05-06 11:31 42.84428 10.16229 36917 ft 422 kts 168°
2026-05-06 11:32 42.78826 10.18655 36921 ft 422 kts 168°
2026-05-06 11:32 42.73220 10.21074 36896 ft 423 kts 168°
2026-05-06 11:33 42.67617 10.23497 36904 ft 423 kts 168°
2026-05-06 11:33 42.62042 10.25895 36911 ft 423 kts 168°
2026-05-06 11:34 42.56420 10.28304 36928 ft 424 kts 168°
2026-05-06 11:34 42.50803 10.30715 36924 ft 424 kts 169°
2026-05-06 11:35 42.45183 10.33123 36935 ft 423 kts 169°
2026-05-06 11:35 42.39605 10.35511 36942 ft 423 kts 169°
2026-05-06 11:36 42.33987 10.37902 36946 ft 423 kts 168°
2026-05-06 11:36 42.28473 10.40906 36946 ft 428 kts 163°
2026-05-06 11:37 42.22988 10.44032 36959 ft 428 kts 163°
2026-05-06 11:37 42.17537 10.47129 36963 ft 428 kts 163°
2026-05-06 11:38 42.12047 10.50237 36953 ft 428 kts 164°
2026-05-06 11:38 42.06559 10.53333 36960 ft 428 kts 164°
2026-05-06 11:39 42.01076 10.56427 36967 ft 427 kts 164°
2026-05-06 11:39 41.95630 10.59502 36966 ft 427 kts 164°
2026-05-06 11:40 41.90151 10.62586 36952 ft 427 kts 163°
2026-05-06 11:40 41.84674 10.65657 36974 ft 426 kts 164°
2026-05-06 11:41 41.79203 10.68725 36965 ft 426 kts 164°
2026-05-06 11:41 41.73728 10.71785 36976 ft 426 kts 164°
2026-05-06 11:42 41.68295 10.74819 36964 ft 426 kts 164°
2026-05-06 11:42 41.62822 10.77871 36961 ft 426 kts 164°
2026-05-06 11:43 41.57342 10.80913 36970 ft 427 kts 164°
2026-05-06 11:43 41.51847 10.83954 36973 ft 427 kts 164°
2026-05-06 11:44 41.43654 10.88499 36968 ft 427 kts 163°
2026-05-06 11:44 41.38160 10.91542 36973 ft 428 kts 163°
2026-05-06 11:45 41.32656 10.94567 36976 ft 428 kts 164°
2026-05-06 11:45 41.27149 10.97591 36979 ft 428 kts 163°
2026-05-06 11:46 41.21676 11.00604 36959 ft 429 kts 163°
2026-05-06 11:46 41.16160 11.03635 36966 ft 429 kts 163°
2026-05-06 11:47 41.10632 11.06659 36973 ft 430 kts 163°
2026-05-06 11:47 41.05101 11.09678 36979 ft 431 kts 163°
2026-05-06 11:48 40.99554 11.12703 36959 ft 431 kts 164°
2026-05-06 11:48 40.94036 11.15707 36966 ft 432 kts 164°
2026-05-06 11:49 40.88472 11.18728 36975 ft 433 kts 164°
2026-05-06 11:49 40.82895 11.21747 36981 ft 433 kts 163°
2026-05-06 11:50 40.77397 11.25089 36965 ft 437 kts 160°
2026-05-06 11:50 40.72007 11.28712 36970 ft 438 kts 159°
2026-05-06 11:51 40.66566 11.32344 36962 ft 438 kts 160°
2026-05-06 11:51 40.61094 11.35880 36972 ft 438 kts 161°
2026-05-06 11:52 40.55613 11.39371 36960 ft 438 kts 162°
2026-05-06 11:52 40.50160 11.42855 36972 ft 439 kts 161°
2026-05-06 11:53 40.44667 11.46374 36985 ft 439 kts 161°
2026-05-06 11:53 40.39178 11.49883 36991 ft 439 kts 161°
2026-05-06 11:54 40.33684 11.53393 37010 ft 440 kts 162°
2026-05-06 11:54 40.28217 11.56876 36993 ft 439 kts 162°
2026-05-06 11:55 40.22720 11.60372 36993 ft 439 kts 162°
2026-05-06 11:55 40.17221 11.63861 37001 ft 439 kts 162°
2026-05-06 11:56 40.11730 11.67338 37004 ft 439 kts 162°
2026-05-06 11:56 40.06266 11.70786 36984 ft 440 kts 162°
2026-05-06 11:57 40.00748 11.74266 36985 ft 441 kts 162°
2026-05-06 11:57 39.95216 11.77756 36995 ft 442 kts 162°
2026-05-06 11:58 39.89669 11.81245 36998 ft 443 kts 162°
2026-05-06 11:58 39.84153 11.84717 36992 ft 443 kts 162°
2026-05-06 11:59 39.78601 11.88199 37002 ft 443 kts 162°
2026-05-06 11:59 39.73043 11.91673 37010 ft 443 kts 162°
2026-05-06 12:00 39.67491 11.95144 37020 ft 443 kts 162°
2026-05-06 12:00 39.61933 11.98612 37002 ft 443 kts 162°
2026-05-06 12:01 39.56415 12.02037 37022 ft 442 kts 162°
2026-05-06 12:01 39.50864 12.05479 37005 ft 442 kts 162°
2026-05-06 12:02 39.45301 12.08922 37001 ft 444 kts 162°
2026-05-06 12:02 39.39726 12.12376 37005 ft 445 kts 162°
2026-05-06 12:03 39.34177 12.15818 36998 ft 445 kts 162°
2026-05-06 12:03 39.28585 12.19262 37008 ft 445 kts 162°
2026-05-06 12:04 39.22986 12.22702 37011 ft 446 kts 162°
2026-05-06 12:04 39.17394 12.26141 37011 ft 445 kts 162°
2026-05-06 12:05 39.11795 12.29579 36998 ft 445 kts 162°
2026-05-06 12:05 39.06239 12.32977 37002 ft 445 kts 162°
2026-05-06 12:06 39.00647 12.36398 37000 ft 445 kts 162°
2026-05-06 12:06 38.95051 12.39814 37000 ft 445 kts 162°
2026-05-06 12:07 38.89456 12.43211 36970 ft 446 kts 162°
2026-05-06 12:07 38.83902 12.46697 36976 ft 450 kts 159°
2026-05-06 12:08 38.78413 12.50613 36973 ft 453 kts 157°
2026-05-06 12:08 38.72942 12.54635 36978 ft 453 kts 158°
2026-05-06 12:09 38.67447 12.58568 36980 ft 452 kts 158°
2026-05-06 12:09 38.61962 12.62411 36965 ft 453 kts 158°
2026-05-06 12:10 38.56437 12.66281 36973 ft 453 kts 158°
2026-05-06 12:10 38.50910 12.70171 36975 ft 454 kts 158°
2026-05-06 12:11 38.45374 12.74053 36975 ft 454 kts 158°
2026-05-06 12:11 38.40775 12.77263 36957 ft 454 kts 158°
2026-05-06 12:12 38.35220 12.81136 36960 ft 456 kts 158°
2026-05-06 12:12 38.28737 12.85666 36968 ft 458 kts 158°
2026-05-06 12:13 38.24048 12.88935 36977 ft 459 kts 158°
2026-05-06 12:13 38.18479 12.92808 36983 ft 460 kts 158°
2026-05-06 12:14 38.12860 12.96705 36974 ft 460 kts 158°
2026-05-06 12:14 38.07233 13.00601 36981 ft 461 kts 158°
2026-05-06 12:15 38.01595 13.04499 36988 ft 462 kts 158°
2026-05-06 12:15 37.95993 13.08364 36988 ft 462 kts 158°
2026-05-06 12:16 37.90346 13.12252 36974 ft 462 kts 158°
2026-05-06 12:16 37.84684 13.16146 36965 ft 464 kts 157°
2026-05-06 12:17 37.79002 13.20055 36977 ft 465 kts 157°
2026-05-06 12:17 37.73350 13.23923 36985 ft 466 kts 157°
2026-05-06 12:18 37.67642 13.27825 36991 ft 467 kts 157°
2026-05-06 12:18 37.61933 13.31723 36825 ft 466 kts 157°
2026-05-06 12:19 37.59088 13.33668 36181 ft 466 kts 157°
2026-05-06 12:19 37.56242 13.35608 35534 ft 465 kts 157°
2026-05-06 12:19 37.53433 13.37520 34909 ft 464 kts 157°
2026-05-06 12:19 37.50594 13.39454 34276 ft 463 kts 157°
2026-05-06 12:20 37.47767 13.41378 33608 ft 462 kts 156°
2026-05-06 12:20 37.44945 13.43293 33000 ft 458 kts 156°
2026-05-06 12:20 37.42148 13.45187 32444 ft 454 kts 156°
2026-05-06 12:20 37.39387 13.47056 31868 ft 450 kts 156°
2026-05-06 12:21 37.36646 13.48916 31336 ft 445 kts 156°
2026-05-06 12:21 37.33928 13.50760 30771 ft 442 kts 156°
2026-05-06 12:21 37.31230 13.52589 30214 ft 440 kts 155°
2026-05-06 12:21 37.28545 13.54407 29634 ft 437 kts 155°
2026-05-06 12:22 37.25876 13.56208 29073 ft 432 kts 156°
2026-05-06 12:22 37.23276 13.57959 28541 ft 428 kts 156°
2026-05-06 12:22 37.20670 13.59715 28013 ft 423 kts 156°
2026-05-06 12:22 37.18087 13.61453 27495 ft 419 kts 156°
2026-05-06 12:23 37.15533 13.63168 26963 ft 415 kts 156°
2026-05-06 12:23 37.12997 13.64866 26428 ft 411 kts 156°
2026-05-06 12:23 37.10411 13.66306 25916 ft 404 kts 161°
2026-05-06 12:23 37.07817 13.67643 25418 ft 401 kts 161°
2026-05-06 12:24 37.05251 13.68967 24929 ft 397 kts 161°
2026-05-06 12:24 37.02710 13.70281 24462 ft 393 kts 161°
2026-05-06 12:24 37.00228 13.71566 23998 ft 390 kts 161°
2026-05-06 12:24 36.97735 13.72854 23533 ft 386 kts 161°
2026-05-06 12:25 36.95265 13.74125 22994 ft 382 kts 161°
2026-05-06 12:25 36.92812 13.75382 22490 ft 379 kts 161°
2026-05-06 12:25 36.90380 13.76624 21977 ft 376 kts 161°
2026-05-06 12:25 36.87968 13.77856 21477 ft 374 kts 161°
2026-05-06 12:26 36.85574 13.79081 21011 ft 371 kts 161°
2026-05-06 12:26 36.83197 13.80298 20563 ft 368 kts 161°
2026-05-06 12:26 36.80869 13.81492 20128 ft 364 kts 162°
2026-05-06 12:26 36.78535 13.82686 19701 ft 361 kts 161°
2026-05-06 12:27 36.76216 13.83866 19278 ft 359 kts 162°
2026-05-06 12:27 36.73913 13.85039 18872 ft 356 kts 162°
2026-05-06 12:27 36.71633 13.86203 18457 ft 353 kts 161°
2026-05-06 12:27 36.69366 13.87360 17993 ft 351 kts 161°
2026-05-06 12:28 36.67113 13.88509 17540 ft 349 kts 162°
2026-05-06 12:28 36.64874 13.89649 17054 ft 347 kts 161°
2026-05-06 12:28 36.62647 13.90786 16579 ft 345 kts 161°
2026-05-06 12:28 36.60461 13.91904 16144 ft 344 kts 161°
2026-05-06 12:29 36.58256 13.93030 15766 ft 340 kts 162°
2026-05-06 12:29 36.56099 13.94131 15616 ft 330 kts 161°
2026-05-06 12:29 36.53989 13.95206 15330 ft 326 kts 161°
2026-05-06 12:29 36.51896 13.96267 14984 ft 324 kts 161°
2026-05-06 12:30 36.49814 13.97318 14626 ft 322 kts 163°
2026-05-06 12:30 36.47729 13.98277 14281 ft 319 kts 165°
2026-05-06 12:30 36.45661 13.99149 13947 ft 317 kts 166°
2026-05-06 12:30 36.43569 13.99997 13574 ft 316 kts 166°
2026-05-06 12:31 36.41489 14.00832 13162 ft 312 kts 166°
2026-05-06 12:31 36.39449 14.01661 12688 ft 304 kts 166°
2026-05-06 12:31 36.37476 14.02476 12388 ft 290 kts 166°
2026-05-06 12:31 36.35614 14.03256 12085 ft 278 kts 166°
2026-05-06 12:32 36.33795 14.04020 11608 ft 274 kts 166°
2026-05-06 12:32 36.32000 14.04770 11106 ft 271 kts 165°
2026-05-06 12:32 36.30220 14.05513 10588 ft 269 kts 164°
2026-05-06 12:32 36.28476 14.06239 10086 ft 267 kts 164°
2026-05-06 12:33 36.26720 14.06970 9577 ft 266 kts 165°
2026-05-06 12:33 36.24977 14.07695 9319 ft 262 kts 165°
2026-05-06 12:33 36.23267 14.08407 9037 ft 258 kts 164°
2026-05-06 12:33 36.21572 14.09107 8708 ft 256 kts 163°
2026-05-06 12:34 36.19888 14.09804 8361 ft 254 kts 163°
2026-05-06 12:34 36.18221 14.10496 8042 ft 252 kts 163°
2026-05-06 12:34 36.16571 14.11185 7738 ft 249 kts 162°
2026-05-06 12:34 36.14991 14.11925 7465 ft 245 kts 155°
2026-05-06 12:35 36.13576 14.13086 7150 ft 245 kts 141°
2026-05-06 12:35 36.12374 14.14567 6865 ft 242 kts 137°
2026-05-06 12:35 36.11206 14.16040 6558 ft 239 kts 137°
2026-05-06 12:35 36.10037 14.17506 6183 ft 239 kts 137°
2026-05-06 12:36 36.08876 14.18957 5851 ft 236 kts 137°
2026-05-06 12:36 36.07726 14.20393 5480 ft 236 kts 136°
2026-05-06 12:36 36.06570 14.21835 5136 ft 235 kts 136°
2026-05-06 12:36 36.05436 14.23250 4934 ft 227 kts 136°
2026-05-06 12:37 36.04347 14.24611 4824 ft 218 kts 136°
2026-05-06 12:37 36.03309 14.25903 4698 ft 211 kts 136°
2026-05-06 12:37 36.02293 14.27165 4571 ft 204 kts 136°
2026-05-06 12:37 36.01309 14.28391 4463 ft 198 kts 136°
2026-05-06 12:38 36.00345 14.29593 4241 ft 196 kts 136°
2026-05-06 12:38 35.99389 14.30785 4004 ft 195 kts 137°
2026-05-06 12:38 35.98457 14.31947 3764 ft 185 kts 136°
2026-05-06 12:38 35.97583 14.33037 3514 ft 174 kts 136°
2026-05-06 12:39 35.96745 14.34080 3295 ft 172 kts 136°
2026-05-06 12:39 35.95906 14.35125 3071 ft 169 kts 137°
2026-05-06 12:39 35.95085 14.36147 2864 ft 168 kts 137°
2026-05-06 12:39 35.94284 14.37145 2646 ft 158 kts 138°
2026-05-06 12:40 35.93540 14.38072 2441 ft 145 kts 139°
2026-05-06 12:40 35.92869 14.38910 2334 ft 132 kts 139°
2026-05-06 12:40 35.92231 14.39704 2102 ft 127 kts 139°
2026-05-06 12:40 35.91611 14.40476 1894 ft 126 kts 139°
2026-05-06 12:41 35.90999 14.41235 1740 ft 124 kts 139°
2026-05-06 12:41 35.90398 14.41979 1565 ft 124 kts 139°
2026-05-06 12:41 35.89791 14.42732 1411 ft 124 kts 139°
2026-05-06 12:41 35.89186 14.43483 1246 ft 124 kts 138°
2026-05-06 12:42 35.88579 14.44235 1075 ft 122 kts 136°
2026-05-06 12:42 35.87977 14.44984 893 ft 125 kts 134°
2026-05-06 12:42 35.87360 14.45752 773 ft 124 kts 134°
2026-05-06 12:42 35.86748 14.46509 627 ft 124 kts 134°
2026-05-06 12:43 35.86140 14.47258 437 ft 124 kts 134°
2026-05-06 12:43 35.85537 14.48006 283 ft 122 kts 132°
2026-05-06 12:43 35.84987 14.48696 252 ft 97 kts 134°
2026-05-06 12:43 35.84725 14.49020 249 ft 20 kts 135°
2026-05-06 12:44 35.84625 14.49144 250 ft 22 kts 134°
2026-05-06 12:44 35.84512 14.49289 251 ft 25 kts 132°
2026-05-06 12:44 35.84453 14.49475 252 ft 12 kts 103°
2026-05-06 12:44 35.84478 14.49576 251 ft 16 kts 18°
2026-05-06 12:45 35.84540 14.49547 251 ft 4 kts 322°
2026-05-06 12:45 35.84595 14.49545 251 ft 10 kts 33°
2026-05-06 12:45 35.84757 14.49472 251 ft 12 kts 324°
2026-05-06 12:46 35.84816 14.49459 251 ft 5 kts 359°
2026-05-06 12:46 35.84849 14.49458 250 ft 3 kts 358°
2026-05-06 12:46 35.84860 14.49458 250 ft 0 kts 359°